Tracking 19634 objects as of 23-May-2019
HD Live streaming from Space Station
objects crossing your sky now

SBS 6

Track SBS 6 now!
SBS 6 is classified as:


NORAD ID: 20872
Int'l Code: 1990-091A
Perigee: 36,127.5 km
Apogee: 36,184.6 km
Inclination: 8.9 °
Period: 1,454.6 minutes
Semi major axis: 42527 km
RCS: 24.6021 m2 (large)
Launch date: October 12, 1990
Source: United States (US)
Launch site: FRENCH GUIANA (FRGUI)
aabbcc
Your satellite tracking list
Your tracking list is empty




NASA's NSSDC Master Catalog

Two Line Element Set (TLE):
1 20872U 90091A   19142.19771508 -.00000220  00000-0  00000+0 0  9997
2 20872   8.8540  45.3266 0006712  33.8963 181.0787  0.98993103 92667
Source of the keplerian elements: AFSPC